• în România
  • Lista ţărilor
  • Pe 7 zile
  • Temperatura apei
  • Hartă satelitară
  • Meteo pe hartă
  • Widget-uri
  • user-avatar
    Intrare

    Meteo pe oră la Zhelonki

    Astăzi, 17 Iulie, Marţi

    Timp Temperatura Precipitaţii Vânt Presiune Umiditate
    00:00 +19°C° 0 mm 2 m/s 747 mmHg 85%
    01:00 +19°C° 0 mm 2 m/s 747 mmHg 86%
    02:00 +18°C° 0 mm 2 m/s 747 mmHg 95%
    03:00 +18°C° 0 mm 2 m/s 747 mmHg 91%
    04:00 +19°C° 0 mm 3 m/s 747 mmHg 87%
    05:00 +20°C° 0 mm 3 m/s 747 mmHg 83%
    06:00 +21°C° 0 mm 4 m/s 747 mmHg 76%
    07:00 +23°C° 0 mm 4 m/s 747 mmHg 68%
    08:00 +26°C° 0 mm 5 m/s 747 mmHg 61%
    09:00 +27°C° 0 mm 5 m/s 747 mmHg 56%
    10:00 +28°C° 0 mm 5 m/s 747 mmHg 52%
    11:00 +29°C° 0 mm 5 m/s 747 mmHg 48%
    12:00 +29°C° 0 mm 5 m/s 747 mmHg 46%
    13:00 +30°C° 0 mm 6 m/s 746 mmHg 45%
    14:00 +30°C° 0 mm 6 m/s 746 mmHg 43%
    15:00 +29°C° 0 mm 5 m/s 746 mmHg 45%
    16:00 +29°C° 0 mm 5 m/s 746 mmHg 46%
    17:00 +29°C° 0 mm 4 m/s 746 mmHg 48%
    18:00 +27°C° 0 mm 4 m/s 746 mmHg 54%
    19:00 +25°C° 0 mm 3 m/s 746 mmHg 59%
    20:00 +22°C° 0 mm 3 m/s 745 mmHg 64%
    21:00 +22°C° 0 mm 3 m/s 745 mmHg 66%
    22:00 +21°C° 0 mm 3 m/s 745 mmHg 67%
    23:00 +21°C° 0 mm 3 m/s 745 mmHg 68%

    Mâine, 18 Iulie, Miercuri

    Timp Temperatura Precipitaţii Vânt Presiune Umiditate
    00:00 +20°C° 0 mm 3 m/s 745 mmHg 68%
    01:00 +20°C° 0 mm 4 m/s 745 mmHg 69%
    02:00 +20°C° 0 mm 4 m/s 745 mmHg 70%
    03:00 +20°C° 0 mm 4 m/s 745 mmHg 71%
    04:00 +20°C° 0 mm 4 m/s 745 mmHg 73%
    05:00 +20°C° 0 mm 4 m/s 745 mmHg 74%
    06:00 +21°C° 0 mm 5 m/s 745 mmHg 69%
    07:00 +22°C° 0 mm 5 m/s 745 mmHg 63%
    08:00 +24°C° 0 mm 6 m/s 745 mmHg 58%
    09:00 +26°C° 0 mm 6 m/s 744 mmHg 55%
    10:00 +27°C° 0 mm 6 m/s 744 mmHg 52%
    11:00 +28°C° 0 mm 6 m/s 744 mmHg 49%
    12:00 +28°C° 0,4 mm 6 m/s 744 mmHg 54%
    13:00 +27°C° 0,4 mm 6 m/s 744 mmHg 59%
    14:00 +27°C° 0,4 mm 6 m/s 743 mmHg 64%
    15:00 +27°C° 0,3 mm 5 m/s 743 mmHg 66%
    16:00 +26°C° 0,3 mm 5 m/s 743 mmHg 68%
    17:00 +26°C° 0,3 mm 5 m/s 744 mmHg 70%
    18:00 +23°C° 0,1 mm 4 m/s 744 mmHg 73%
    19:00 +22°C° 0,1 mm 4 m/s 744 mmHg 76%
    20:00 +21°C° 0,1 mm 4 m/s 744 mmHg 80%
    21:00 +21°C° 0,1 mm 4 m/s 744 mmHg 81%
    22:00 +20°C° 0,1 mm 4 m/s 744 mmHg 82%
    23:00 +20°C° 0,1 mm 4 m/s 744 mmHg 83%

    Poimâine, 19 Iulie, Joi

    Timp Temperatura Precipitaţii Vânt Presiune Umiditate
    00:00 +20°C° 0 mm 4 m/s 744 mmHg 83%
    01:00 +20°C° 0 mm 4 m/s 743 mmHg 84%
    02:00 +19°C° 0 mm 4 m/s 743 mmHg 84%
    03:00 +19°C° 0 mm 4 m/s 743 mmHg 83%
    04:00 +20°C° 0 mm 4 m/s 743 mmHg 82%
    05:00 +20°C° 0 mm 4 m/s 744 mmHg 81%
    06:00 +21°C° 0,1 mm 5 m/s 744 mmHg 77%
    07:00 +22°C° 0,1 mm 5 m/s 744 mmHg 73%
    08:00 +23°C° 0,1 mm 5 m/s 744 mmHg 69%
    09:00 +25°C° 0 mm 5 m/s 744 mmHg 66%
    10:00 +26°C° 0 mm 6 m/s 744 mmHg 62%
    11:00 +27°C° 0 mm 6 m/s 744 mmHg 58%
    12:00 +27°C° 0,9 mm 5 m/s 744 mmHg 67%
    13:00 +26°C° 0,9 mm 5 m/s 744 mmHg 75%
    14:00 +25°C° 0,9 mm 5 m/s 743 mmHg 84%
    15:00 +26°C° 0,4 mm 5 m/s 743 mmHg 81%
    16:00 +26°C° 0,4 mm 5 m/s 744 mmHg 78%
    17:00 +26°C° 0,4 mm 5 m/s 744 mmHg 75%
    18:00 +25°C° 0,1 mm 4 m/s 744 mmHg 78%
    19:00 +23°C° 0,1 mm 4 m/s 744 mmHg 81%
    20:00 +22°C° 0,1 mm 3 m/s 744 mmHg 85%
    21:00 +21°C° 0,3 mm 3 m/s 744 mmHg 87%
    22:00 +21°C° 0,3 mm 3 m/s 744 mmHg 90%
    23:00 +20°C° 0,3 mm 3 m/s 744 mmHg 92%

    20 Iulie, Vineri

    Timp Temperatura Precipitaţii Vânt Presiune Umiditate
    00:00 +20°C° 0 mm 3 m/s 744 mmHg 93%
    01:00 +19°C° 0 mm 3 m/s 744 mmHg 94%
    02:00 +19°C° 0 mm 3 m/s 744 mmHg 95%
    03:00 +19°C° 0 mm 4 m/s 744 mmHg 94%
    04:00 +19°C° 0 mm 4 m/s 744 mmHg 92%
    05:00 +19°C° 0 mm 4 m/s 744 mmHg 91%
    06:00 +20°C° 0 mm 4 m/s 745 mmHg 88%
    07:00 +20°C° 0 mm 4 m/s 745 mmHg 85%
    08:00 +21°C° 0 mm 5 m/s 745 mmHg 82%
    09:00 +21°C° 0 mm 5 m/s 745 mmHg 79%
    10:00 +22°C° 0 mm 5 m/s 745 mmHg 76%
    11:00 +22°C° 0 mm 5 m/s 745 mmHg 73%
    12:00 +23°C° 0 mm 5 m/s 745 mmHg 70%
    13:00 +23°C° 0 mm 5 m/s 745 mmHg 67%
    14:00 +25°C° 0 mm 5 m/s 745 mmHg 64%
    15:00 +25°C° 0 mm 4 m/s 745 mmHg 65%
    16:00 +25°C° 0 mm 4 m/s 744 mmHg 66%
    17:00 +25°C° 0 mm 4 m/s 744 mmHg 67%
    18:00 +24°C° 0 mm 3 m/s 744 mmHg 73%
    19:00 +21°C° 0 mm 3 m/s 744 mmHg 80%
    20:00 +20°C° 0 mm 2 m/s 744 mmHg 87%
    21:00 +19°C° 0 mm 2 m/s 744 mmHg 90%
    22:00 +19°C° 0 mm 2 m/s 744 mmHg 93%
    23:00 +18°C° 0 mm 2 m/s 743 mmHg 96%

    21 Iulie, Sâmbătă

    Timp Temperatura Precipitaţii Vânt Presiune Umiditate
    00:00 +18°C° 0 mm 2 m/s 743 mmHg 96%
    01:00 +18°C° 0 mm 2 m/s 743 mmHg 96%
    02:00 +18°C° 0 mm 2 m/s 743 mmHg 97%
    03:00 +18°C° 0,1 mm 2 m/s 743 mmHg 97%
    04:00 +18°C° 0,1 mm 2 m/s 743 mmHg 97%
    05:00 +19°C° 0,1 mm 3 m/s 743 mmHg 97%
    06:00 +19°C° 0,1 mm 3 m/s 743 mmHg 96%
    07:00 +19°C° 0,1 mm 3 m/s 743 mmHg 95%
    08:00 +20°C° 0,1 mm 3 m/s 743 mmHg 94%
    09:00 +20°C° 0 mm 3 m/s 743 mmHg 91%
    10:00 +21°C° 0 mm 3 m/s 743 mmHg 89%
    11:00 +22°C° 0 mm 3 m/s 743 mmHg 86%
    12:00 +24°C° 0 mm 3 m/s 743 mmHg 83%
    13:00 +25°C° 0 mm 3 m/s 742 mmHg 79%
    14:00 +26°C° 0 mm 2 m/s 742 mmHg 76%
    15:00 +26°C° 0 mm 2 m/s 742 mmHg 74%
    16:00 +27°C° 0 mm 3 m/s 742 mmHg 73%
    17:00 +28°C° 0 mm 3 m/s 742 mmHg 71%
    18:00 +26°C° 0 mm 2 m/s 742 mmHg 78%
    19:00 +25°C° 0 mm 2 m/s 742 mmHg 84%
    20:00 +24°C° 0 mm 2 m/s 741 mmHg 91%
    21:00 +23°C° 0,2 mm 2 m/s 741 mmHg 93%
    22:00 +21°C° 0,2 mm 2 m/s 741 mmHg 95%
    23:00 +21°C° 0,2 mm 2 m/s 741 mmHg 97%

    22 Iulie, Duminică

    Timp Temperatura Precipitaţii Vânt Presiune Umiditate
    00:00 +20°C° 0,3 mm 2 m/s 741 mmHg 98%
    01:00 +20°C° 0,3 mm 2 m/s 741 mmHg 98%
    02:00 +20°C° 0,3 mm 2 m/s 741 mmHg 98%
    03:00 +20°C° 0 mm 2 m/s 741 mmHg 97%
    04:00 +20°C° 0 mm 2 m/s 741 mmHg 97%
    05:00 +21°C° 0 mm 2 m/s 741 mmHg 96%
    06:00 +23°C° 0,1 mm 2 m/s 741 mmHg 90%
    07:00 +25°C° 0,1 mm 2 m/s 741 mmHg 85%
    08:00 +26°C° 0,1 mm 3 m/s 741 mmHg 79%
    09:00 +28°C° 0,2 mm 3 m/s 741 mmHg 72%
    10:00 +29°C° 0,2 mm 3 m/s 741 mmHg 64%
    11:00 +30°C° 0,2 mm 4 m/s 741 mmHg 57%
    12:00 +30°C° 0,3 mm 4 m/s 741 mmHg 58%
    13:00 +30°C° 0,3 mm 4 m/s 741 mmHg 60%
    14:00 +30°C° 0,3 mm 4 m/s 740 mmHg 61%
    15:00 +29°C° 0,7 mm 4 m/s 740 mmHg 67%
    16:00 +28°C° 0,7 mm 3 m/s 740 mmHg 74%
    17:00 +27°C° 0,7 mm 3 m/s 740 mmHg 80%
    18:00 +26°C° 0,4 mm 3 m/s 740 mmHg 83%
    19:00 +25°C° 0,4 mm 3 m/s 740 mmHg 85%
    20:00 +24°C° 0,4 mm 3 m/s 740 mmHg 88%
    21:00 +22°C° 1,2 mm 3 m/s 740 mmHg 90%
    22:00 +23°C° 1,2 mm 2 m/s 740 mmHg 92%
    23:00 +21°C° 1,2 mm 2 m/s 740 mmHg 94%
    Arată mai mult